Change the Weather History Date:

Wednesday, May 7, 2014

  Actual Average Record
Temperature  
Mean Temperature 52 °F -  
Max Temperature 71 °F 65 °F 90 °F (2000)
Min Temperature 33 °F 42 °F 27 °F (2001)
Degree Days  
Heating Degree Days 14    
Growing Degree Days 2 (Base 50)    
Moisture  
Dew Point 32 °F    
Average Humidity 60    
Maximum Humidity 93    
Minimum Humidity 18    
Precipitation  
Precipitation 0.00 in - - ()
Sea Level Pressure  
Sea Level Pressure 30.13 in    
Wind  
Wind Speed 2 mph (WSW)    
Max Wind Speed 12 mph    
Max Gust Speed 21 mph    
Visibility 9 miles    
Events      
Averages and records for this station are not official NWS values.
T = Trace of Precipitation, MM = Missing Value Source: NWS Daily Summary

Daily Weather History Graph

Daily Weather History Graph

Search for Another Location

Airport or City:

Trip Planner

Search our weather history database for the weather conditions in past years. The results will help you decide how hot, cold, wet, or windy it might be!

Date:

Astronomy

May. 07, 2014 Rise Set
Actual Time 5:32 AM EDT 7:49 PM EDT
Civil Twilight 5:01 AM EDT 8:20 PM EDT
Nautical Twilight 4:23 AM EDT 8:58 PM EDT
Astronomical Twilight 3:41 AM EDT 9:41 PM EDT
Moon 12:44 PM EDT (5/7) 1:36 AM EDT (5/7)
Length of Visible Light 15h 18m
Length of Day
14h 16m
First Quarter, 55% of the Moon is Illuminated
May 7
First Quarter
May 14
Full
May 21
Last Quarter
May 28
New
Jun 5
First Quarter

Hourly Weather History & Observations

Time (EDT) Temp. Dew Point Humidity Pressure Visibility Wind Dir Wind Speed Gust Speed Precip Events Conditions
12:52 AM 37.9 °F 33.1 °F 83% 30.05 in 10.0 mi Calm Calm - N/A   Clear
1:52 AM 37.0 °F 34.0 °F 89% 30.05 in 10.0 mi Calm Calm - N/A   Clear
2:39 AM 36.0 °F 33.1 °F 89% 30.06 in 6.0 mi Calm Calm - N/A   Scattered Clouds
2:52 AM 36.0 °F 33.1 °F 89% 30.06 in 5.0 mi Calm Calm - N/A   Partly Cloudy
3:25 AM 35.1 °F 33.1 °F 92% 30.07 in 1.2 mi Calm Calm - N/A   Partly Cloudy
3:27 AM 35.1 °F 33.1 °F 92% 30.07 in 0.8 mi Calm Calm - N/A   Mist
3:40 AM 35.1 °F 33.1 °F 92% 30.08 in 2.0 mi Calm Calm - N/A   Partly Cloudy
3:48 AM 33.8 °F 32.0 °F 93% 30.08 in 10.0 mi Calm Calm - N/A   Partly Cloudy
3:52 AM 34.0 °F 32.0 °F 92% 30.09 in 10.0 mi Calm Calm - N/A   Partly Cloudy
5:52 AM 34.0 °F 30.9 °F 89% 30.12 in 9.0 mi Calm Calm - N/A   Clear
6:52 AM 42.1 °F 37.9 °F 85% 30.15 in 10.0 mi Calm Calm - N/A   Clear
8:52 AM 59.0 °F 30.9 °F 35% 30.16 in 10.0 mi NNW 4.6 mph - N/A   Clear
9:52 AM 61.0 °F 30.9 °F 32% 30.17 in 10.0 mi Variable 5.8 mph - N/A   Clear
10:52 AM 63.0 °F 30.0 °F 29% 30.18 in 10.0 mi Variable 4.6 mph - N/A   Clear
11:52 AM 66.0 °F 28.9 °F 25% 30.17 in 10.0 mi Calm Calm - N/A   Clear
12:52 PM 66.9 °F 28.9 °F 24% 30.16 in 10.0 mi WNW 9.2 mph 17.3 mph N/A   Clear
1:52 PM 69.1 °F 26.1 °F 20% 30.15 in 10.0 mi Variable 5.8 mph - N/A   Clear
2:52 PM 70.0 °F 25.0 °F 18% 30.14 in 10.0 mi NW 11.5 mph 20.7 mph N/A   Clear
3:52 PM 68.0 °F 32.0 °F 26% 30.13 in 10.0 mi SW 8.1 mph 17.3 mph N/A   Clear
6:52 PM 60.1 °F 32.0 °F 35% 30.14 in 10.0 mi SW 5.8 mph - N/A   Clear
7:52 PM 57.0 °F 35.1 °F 44% 30.16 in 10.0 mi SSW 5.8 mph - N/A   Clear
8:52 PM 54.0 °F 35.1 °F 49% 30.18 in 10.0 mi SSW 5.8 mph - N/A   Clear
9:52 PM 53.1 °F 35.1 °F 50% 30.19 in 10.0 mi Calm Calm - N/A   Clear
10:52 PM 48.9 °F 36.0 °F 61% 30.18 in 10.0 mi Calm Calm - N/A   Clear
11:52 PM 45.0 °F 36.0 °F 71% 30.19 in 10.0 mi Calm Calm - N/A   Clear